Weather History for Hoquiam, WA

Change the Weather History Date:

Friday, October 26, 2012

  Actual Average Record
Temperature  
Mean Temperature 50 °F 50 °F  
Max Temperature 53 °F 56 °F 72 °F (2003)
Min Temperature 46 °F 44 °F 31 °F (1954)
Degree Days  
Heating Degree Days 16 15  
Month to date heating degree days 316  
Cooling Degree Days 0 0  
Month to date cooling degree days 0  
Year to date cooling degree days 23  
Moisture  
Dew Point 48 °F    
Average Humidity 94    
Maximum Humidity 100    
Minimum Humidity 83    
Precipitation  
Precipitation 0.24 in 0.28 in 2.36 in (1985)
Month to date precipitation 5.04  
Year to date precipitation 44.93  
Sea Level Pressure  
Sea Level Pressure 30.09 in    
Wind  
Wind Speed 9 mph (East)    
Max Wind Speed 18 mph    
Max Gust Speed -    
Visibility 5 miles    
Events Rain    
T = Trace of Precipitation, MM = Missing Value Source: NWS Daily Summary

Daily Weather History Graph

Daily Weather History Graph

Search for Another Location

Airport:

Trip Planner

Search our weather history database for the weather conditions in past years. The results will help you decide how hot, cold, wet, or windy it might be!

Date:

Astronomy

Oct. 26, 2012 Rise Set
Actual Time 7:50 AM PDT 6:08 PM PDT
Civil Twilight 7:18 AM PDT 6:39 PM PDT
Nautical Twilight 6:43 AM PDT 7:15 PM PDT
Astronomical Twilight 6:08 AM PDT 7:50 PM PDT
Moon 4:34 PM PDT (10/26) 4:43 AM PDT (10/26)
Length of Visible Light 11h 20m
Length of Day
10h 17m
Waxing Gibbous, 91% of the Moon is Illuminated
Oct 26
Waxing Gibbous
Oct 29
Full
Nov 6
Last Quarter
Nov 13
New
Nov 20
First Quarter

Hourly Weather History & Observations

Time (PDT) Temp. Windchill Dew Point Humidity Pressure Visibility Wind Dir Wind Speed Gust Speed Precip Events Conditions
12:53 AM 46.9 °F - 44.1 °F 90% 30.27 in 10.0 mi ENE 6.9 mph - N/A   Mostly Cloudy
1:53 AM 48.0 °F - 44.1 °F 86% 30.25 in 10.0 mi NE 8.1 mph - N/A   Overcast
2:53 AM 48.0 °F - 44.1 °F 86% 30.23 in 10.0 mi ENE 6.9 mph - N/A   Overcast
3:53 AM 46.9 °F - 44.1 °F 90% 30.21 in 10.0 mi ENE 5.8 mph - N/A   Overcast
4:53 AM 46.9 °F - 43.0 °F 86% 30.19 in 10.0 mi NE 10.4 mph - N/A   Overcast
5:53 AM 46.9 °F - 42.1 °F 83% 30.18 in 10.0 mi ENE 10.4 mph - N/A   Overcast
6:53 AM 46.9 °F - 43.0 °F 86% 30.17 in 10.0 mi NE 9.2 mph - N/A   Overcast
7:40 AM 46.4 °F 42.4 °F 42.8 °F 87% 30.15 in 8.0 mi NE 8.1 mph - N/A   Overcast
7:50 AM 46.4 °F 43.5 °F 42.8 °F 87% 30.15 in 10.0 mi NE 5.8 mph - N/A   Overcast
7:53 AM 46.9 °F - 43.0 °F 86% 30.16 in 10.0 mi NE 5.8 mph - N/A   Overcast
8:32 AM 46.4 °F 42.4 °F 44.6 °F 93% 30.13 in 2.5 mi ENE 8.1 mph - 0.01 in Rain Light Rain
8:39 AM 46.4 °F 41.5 °F 44.6 °F 93% 30.13 in 6.0 mi NE 10.4 mph - 0.01 in   Overcast
8:53 AM 46.0 °F 41.0 °F 44.1 °F 93% 30.13 in 6.0 mi ENE 10.4 mph - 0.01 in   Overcast
9:53 AM 46.0 °F 41.9 °F 45.0 °F 96% 30.15 in 3.0 mi ENE 8.1 mph - 0.00 in Rain Light Rain
10:31 AM 46.4 °F 41.9 °F 44.6 °F 93% 30.13 in 2.5 mi ENE 9.2 mph - 0.00 in   Overcast
10:42 AM 46.4 °F 40.7 °F 44.6 °F 93% 30.12 in 4.0 mi East 12.7 mph - 0.00 in   Overcast
10:53 AM 46.9 °F - 45.0 °F 93% 30.14 in 6.0 mi ENE 6.9 mph - 0.00 in   Overcast
11:05 AM 46.4 °F 41.9 °F 44.6 °F 93% 30.13 in 7.0 mi ENE 9.2 mph - N/A   Overcast
11:53 AM 48.0 °F - 46.0 °F 93% 30.09 in 6.0 mi East 13.8 mph - N/A   Overcast
12:22 PM 48.2 °F - 46.4 °F 93% 30.07 in 9.0 mi NE 10.4 mph - N/A   Overcast
12:53 PM 48.9 °F - 46.0 °F 90% 30.08 in 10.0 mi NE 10.4 mph - N/A   Overcast
1:25 PM 48.2 °F - 46.4 °F 93% 30.07 in 1.8 mi NE 8.1 mph - 0.01 in Rain Light Rain
1:53 PM 48.0 °F - 46.9 °F 96% 30.08 in 1.5 mi NE 9.2 mph - 0.03 in Rain Light Rain
2:39 PM 48.2 °F - 46.4 °F 93% 30.06 in 2.0 mi ENE 10.4 mph - 0.04 in Rain Light Rain
2:46 PM 48.2 °F - 46.4 °F 93% 30.06 in 1.5 mi NE 10.4 mph - 0.04 in Rain Light Rain
2:53 PM 48.9 °F - 48.0 °F 97% 30.07 in 2.0 mi ENE 9.2 mph - 0.04 in Rain Light Rain
3:22 PM 48.2 °F - 46.4 °F 93% 30.05 in 1.8 mi NE 9.2 mph - 0.01 in Rain Light Rain
3:39 PM 48.2 °F - 46.4 °F 93% 30.06 in 2.5 mi ENE 6.9 mph - 0.02 in Rain Light Rain
3:53 PM 48.0 °F - 46.9 °F 96% 30.07 in 1.5 mi ENE 10.4 mph - 0.03 in Rain Light Rain
4:05 PM 48.2 °F - 48.2 °F 100% 30.05 in 2.5 mi NE 5.8 mph - 0.00 in   Overcast
4:09 PM 48.2 °F - 48.2 °F 100% 30.05 in 3.0 mi NE 4.6 mph - 0.00 in   Overcast
4:28 PM 48.2 °F - 48.2 °F 100% 30.05 in 6.0 mi NE 8.1 mph - 0.00 in   Overcast
4:39 PM 50.0 °F - 48.2 °F 94% 30.06 in 8.0 mi NE 5.8 mph - 0.00 in   Overcast
4:53 PM 48.9 °F - 48.0 °F 97% 30.08 in 7.0 mi ENE 5.8 mph - 0.00 in   Overcast
5:16 PM 48.2 °F - 48.2 °F 100% 30.06 in 2.0 mi ENE 5.8 mph - 0.01 in Rain Light Rain
5:29 PM 48.2 °F - 48.2 °F 100% 30.06 in 1.8 mi ENE 3.5 mph - 0.01 in Rain Light Rain
5:53 PM 50.0 °F - 48.9 °F 96% 30.07 in 1.0 mi Calm Calm - 0.03 in Rain Light Rain
6:33 PM 50.0 °F - 50.0 °F 100% 30.06 in 1.8 mi ESE 5.8 mph - 0.03 in Rain Light Rain
6:43 PM 51.8 °F - 51.8 °F 100% 30.06 in 2.5 mi South 11.5 mph - 0.03 in   Overcast
6:53 PM 52.0 °F - 51.1 °F 97% 30.07 in 2.0 mi South 11.5 mph - 0.04 in Rain Light Rain
7:01 PM 51.8 °F - 51.8 °F 100% 30.07 in 2.5 mi South 12.7 mph - 0.00 in Rain Light Rain
7:38 PM 53.6 °F - 51.8 °F 94% 30.06 in 2.0 mi South 13.8 mph - 0.01 in   Overcast
7:53 PM 53.1 °F - 52.0 °F 96% 30.07 in 2.0 mi South 16.1 mph - 0.02 in   Overcast
7:57 PM 53.6 °F - 51.8 °F 94% 30.06 in 3.0 mi South 16.1 mph - N/A   Overcast
8:04 PM 53.6 °F - 51.8 °F 94% 30.06 in 7.0 mi South 18.4 mph - N/A   Overcast
8:42 PM 53.6 °F - 51.8 °F 94% 30.07 in 2.5 mi SSW 11.5 mph - 0.01 in Rain Light Rain
8:53 PM 53.6 °F - 51.8 °F 94% 30.06 in 3.0 mi South 12.7 mph - N/A Rain Light Rain
9:02 PM 51.8 °F - 51.8 °F 100% 30.06 in 2.0 mi SSW 10.4 mph - 0.00 in Rain Light Rain
9:25 PM 53.6 °F - 51.8 °F 94% 30.06 in 4.0 mi SSW 10.4 mph - 0.01 in   Overcast
9:40 PM 53.6 °F - 51.8 °F 94% 30.05 in 4.0 mi South 12.7 mph - 0.01 in   Overcast
9:53 PM 53.1 °F - 52.0 °F 96% 30.06 in 2.5 mi SSW 13.8 mph - 0.01 in Rain Light Rain
10:02 PM 51.8 °F - 51.8 °F 100% 30.05 in 3.0 mi SSW 13.8 mph - 0.01 in Rain Light Rain
10:27 PM 53.6 °F - 51.8 °F 94% 30.05 in 1.8 mi SSW 11.5 mph - N/A Rain Light Rain
10:38 PM 51.8 °F - 51.8 °F 100% 30.05 in 2.0 mi SSW 12.7 mph - 0.02 in Rain Light Rain
10:44 PM 51.8 °F - 51.8 °F 100% 30.05 in 3.0 mi SSW 11.5 mph - 0.03 in   Overcast
10:53 PM 53.1 °F - 52.0 °F 96% 30.06 in 4.0 mi SSW 11.5 mph - 0.03 in   Overcast
11:02 PM 51.8 °F - 51.8 °F 100% 30.05 in 2.5 mi SSW 13.8 mph - N/A   Overcast
11:10 PM 53.6 °F - 51.8 °F 94% 30.05 in 4.0 mi SSW 15.0 mph - N/A   Overcast
11:31 PM 53.6 °F - 51.8 °F 94% 30.05 in 10.0 mi SSW 16.1 mph - N/A   Overcast
11:43 PM 53.6 °F - 51.8 °F 94% 30.05 in 10.0 mi SSW 13.8 mph - N/A   Overcast
11:53 PM 53.1 °F - 51.1 °F 93% 30.06 in 10.0 mi SSW 12.7 mph - N/A   Overcast